Weather History for Ogallala, NE

Change the Weather History Date:

Wednesday, October 19, 2011

  Actual Average Record
Temperature  
Mean Temperature 42 °F -  
Max Temperature 59 °F 60 °F 89 °F (2003)
Min Temperature 26 °F 31 °F 16 °F (1989)
Degree Days  
Heating Degree Days 22    
Moisture  
Dew Point 27 °F    
Average Humidity 61    
Maximum Humidity 87    
Minimum Humidity 29    
Precipitation  
Precipitation 0.00 in - - ()
Sea Level Pressure  
Sea Level Pressure 30.15 in    
Wind  
Wind Speed 4 mph (WNW)    
Max Wind Speed 12 mph    
Max Gust Speed 17 mph    
Visibility 10 miles    
Events      
Averages and records for this station are not official NWS values.
T = Trace of Precipitation, MM = Missing Value Source: NWS Daily Summary

Daily Weather History Graph

Daily Weather History Graph

Search for Another Location

Airport:

Trip Planner

Search our weather history database for the weather conditions in past years. The results will help you decide how hot, cold, wet, or windy it might be!

Date:

Astronomy

Oct. 19, 2011 Rise Set
Actual Time 7:02 AM MDT 6:00 PM MDT
Civil Twilight 6:34 AM MDT 6:28 PM MDT
Nautical Twilight 6:02 AM MDT 7:00 PM MDT
Astronomical Twilight 5:31 AM MDT 7:32 PM MDT
Moon 11:47 PM MDT (10/19) 1:36 PM MDT (10/19)
Length of Visible Light 11h 53m
Length of Day
10h 57m
Waning Gibbous, 54% of the Moon is Illuminated
Oct 19
Waning Gibbous
Oct 19
Last Quarter
Oct 26
New
Nov 2
First Quarter
Nov 10
Full

Hourly Weather History & Observations

Time (MDT) Temp. Windchill Dew Point Humidity Pressure Visibility Wind Dir Wind Speed Gust Speed Precip Events Conditions
12:15 AM 32.0 °F 24.8 °F 26.6 °F 80% 30.24 in 10.0 mi West 8.1 mph - N/A   Clear
12:35 AM 32.0 °F 28.7 °F 26.6 °F 80% 30.24 in 10.0 mi West 3.5 mph - N/A   Clear
12:55 AM 32.0 °F 28.7 °F 26.6 °F 80% 30.24 in 10.0 mi West 3.5 mph - N/A   Clear
1:15 AM 32.0 °F - 26.6 °F 80% 30.23 in 10.0 mi Calm Calm - N/A   Clear
1:35 AM 30.2 °F 26.7 °F 26.6 °F 86% 30.23 in 10.0 mi WSW 3.5 mph - N/A   Clear
1:55 AM 32.0 °F 28.7 °F 26.6 °F 80% 30.23 in 10.0 mi West 3.5 mph - N/A   Clear
2:15 AM 32.0 °F 28.7 °F 26.6 °F 80% 30.22 in 10.0 mi West 3.5 mph - N/A   Clear
2:35 AM 32.0 °F - 24.8 °F 75% 30.22 in 10.0 mi Calm Calm - N/A   Clear
2:55 AM 32.0 °F 28.7 °F 26.6 °F 80% 30.20 in 10.0 mi WNW 3.5 mph - N/A   Clear
3:15 AM 32.0 °F 27.5 °F 26.6 °F 80% 30.21 in 10.0 mi West 4.6 mph - N/A   Clear
3:35 AM 32.0 °F 28.7 °F 26.6 °F 80% 30.21 in 10.0 mi West 3.5 mph - N/A   Clear
4:15 AM 30.2 °F 26.7 °F 24.8 °F 80% 30.21 in 10.0 mi WSW 3.5 mph - N/A   Clear
4:35 AM 32.0 °F 26.4 °F 26.6 °F 80% 30.21 in 10.0 mi WSW 5.8 mph - N/A   Clear
4:55 AM 33.8 °F 27.7 °F 26.6 °F 75% 30.21 in 10.0 mi WSW 6.9 mph - N/A   Clear
5:15 AM 32.0 °F 27.5 °F 26.6 °F 80% 30.22 in 10.0 mi WSW 4.6 mph - N/A   Clear
5:35 AM 32.0 °F 26.4 °F 26.6 °F 80% 30.22 in 10.0 mi West 5.8 mph - N/A   Clear
5:55 AM 32.0 °F 26.4 °F 26.6 °F 80% 30.22 in 10.0 mi West 5.8 mph - N/A   Clear
6:15 AM 33.8 °F 25.3 °F 26.6 °F 75% 30.22 in 10.0 mi West 11.5 mph 17.3 mph N/A   Clear
6:35 AM 33.8 °F 26.4 °F 26.6 °F 75% 30.22 in 10.0 mi West 9.2 mph 16.1 mph N/A   Clear
6:55 AM 30.2 °F 24.3 °F 24.8 °F 80% 30.22 in 10.0 mi WSW 5.8 mph - N/A   Clear
7:15 AM 26.6 °F 21.2 °F 23.0 °F 86% 30.22 in 10.0 mi WSW 4.6 mph - N/A   Clear
7:35 AM 28.4 °F 23.3 °F 24.8 °F 86% 30.22 in 10.0 mi WSW 4.6 mph - N/A   Clear
7:55 AM 30.2 °F - 26.6 °F 86% 30.22 in 10.0 mi Calm Calm - N/A   Clear
8:15 AM 32.0 °F 27.5 °F 26.6 °F 80% 30.22 in 10.0 mi West 4.6 mph - N/A   Clear
8:35 AM 32.0 °F 27.5 °F 28.4 °F 87% 30.22 in 10.0 mi WSW 4.6 mph - N/A   Clear
8:55 AM 33.8 °F 30.8 °F 28.4 °F 81% 30.22 in 10.0 mi West 3.5 mph - N/A   Clear
9:15 AM 35.6 °F - 28.4 °F 75% 30.22 in 10.0 mi Calm Calm - N/A   Clear
9:35 AM 39.2 °F - 30.2 °F 70% 30.21 in 10.0 mi Calm Calm - N/A   Clear
10:15 AM 44.6 °F 40.7 °F 28.4 °F 53% 30.20 in 10.0 mi NNW 6.9 mph - N/A   Clear
10:35 AM 46.4 °F - 30.2 °F 53% 30.20 in 10.0 mi Calm Calm - N/A   Clear
10:55 AM 46.4 °F - 30.2 °F 53% 30.19 in 10.0 mi Calm Calm - N/A   Clear
11:15 AM 50.0 °F - 30.2 °F 47% 30.18 in 10.0 mi Calm Calm - N/A   Clear
11:35 AM 51.8 °F - 30.2 °F 44% 30.17 in 10.0 mi NW 6.9 mph - N/A   Clear
11:55 AM 53.6 °F - 28.4 °F 38% 30.16 in 10.0 mi North 9.2 mph - N/A   Clear
12:15 PM 53.6 °F - 26.6 °F 35% 30.15 in 10.0 mi WNW 4.6 mph - N/A   Clear
12:35 PM 55.4 °F - 26.6 °F 33% 30.14 in 10.0 mi NNW 9.2 mph - N/A   Clear
12:55 PM 55.4 °F - 26.6 °F 33% 30.12 in 10.0 mi WNW 5.8 mph - N/A   Clear
1:15 PM 55.4 °F - 28.4 °F 36% 30.11 in 10.0 mi NW 5.8 mph - N/A   Clear
1:55 PM 55.4 °F - 26.6 °F 33% 30.09 in 10.0 mi WNW 6.9 mph - N/A   Scattered Clouds
2:15 PM 57.2 °F - 26.6 °F 31% 30.08 in 10.0 mi WNW 5.8 mph - N/A   Clear
2:55 PM 59.0 °F - 26.6 °F 29% 30.06 in 10.0 mi North 3.5 mph - N/A   Clear
3:15 PM 57.2 °F - 26.6 °F 31% 30.06 in 10.0 mi North 8.1 mph - N/A   Clear
3:35 PM 59.0 °F - 26.6 °F 29% 30.05 in 10.0 mi NNE 5.8 mph - N/A   Clear
3:55 PM 57.2 °F - 26.6 °F 31% 30.05 in 10.0 mi NNE 4.6 mph - N/A   Clear
4:15 PM 57.2 °F - 26.6 °F 31% 30.04 in 10.0 mi Calm Calm - N/A   Clear
4:35 PM 57.2 °F - 26.6 °F 31% 30.04 in 10.0 mi North 5.8 mph - N/A   Clear
4:55 PM 55.4 °F - 26.6 °F 33% 30.04 in 10.0 mi North 4.6 mph - N/A   Clear
5:15 PM 51.8 °F - 26.6 °F 38% 30.04 in 10.0 mi NNE 4.6 mph - N/A   Clear
5:35 PM 51.8 °F - 26.6 °F 38% 30.04 in 10.0 mi NE 3.5 mph - N/A   Clear
5:55 PM 48.2 °F - 28.4 °F 46% 30.04 in 10.0 mi NE 3.5 mph - N/A   Clear
6:15 PM 44.6 °F 43.1 °F 28.4 °F 53% 30.04 in 10.0 mi NE 3.5 mph - N/A   Clear
6:35 PM 41.0 °F 39.0 °F 28.4 °F 61% 30.04 in 10.0 mi ENE 3.5 mph - N/A   Clear
6:55 PM 44.6 °F - 28.4 °F 53% 30.04 in 10.0 mi Calm Calm - N/A   Clear
7:35 PM 41.0 °F - 28.4 °F 61% 30.04 in 10.0 mi Calm Calm - N/A   Clear
7:55 PM 41.0 °F 39.0 °F 28.4 °F 61% 30.04 in 4.0 mi East 3.5 mph - N/A   Haze
8:15 PM 39.2 °F 37.0 °F 28.4 °F 65% 30.04 in 10.0 mi East 3.5 mph - N/A   Clear
8:35 PM 37.4 °F 34.9 °F 28.4 °F 70% 30.05 in 10.0 mi East 3.5 mph - N/A   Clear
8:55 PM 35.6 °F 31.7 °F 28.4 °F 75% 30.05 in 10.0 mi East 4.6 mph - N/A   Clear
9:15 PM 35.6 °F 31.7 °F 28.4 °F 75% 30.06 in 10.0 mi East 4.6 mph - N/A   Clear
9:35 PM 35.6 °F 31.7 °F 28.4 °F 75% 30.06 in 10.0 mi East 4.6 mph - N/A   Clear
9:55 PM 35.6 °F 30.7 °F 28.4 °F 75% 30.06 in 10.0 mi East 5.8 mph - N/A   Clear
10:15 PM 33.8 °F 29.6 °F 28.4 °F 81% 30.06 in 10.0 mi East 4.6 mph - N/A   Clear
10:35 PM 33.8 °F 29.6 °F 28.4 °F 81% 30.06 in 10.0 mi East 4.6 mph - N/A   Clear
10:55 PM 33.8 °F 30.8 °F 28.4 °F 81% 30.06 in 10.0 mi ESE 3.5 mph - N/A   Clear
11:15 PM 32.0 °F 27.5 °F 28.4 °F 87% 30.05 in 10.0 mi East 4.6 mph - N/A   Clear
11:35 PM 32.0 °F 28.7 °F 28.4 °F 87% 30.05 in 10.0 mi East 3.5 mph - N/A   Clear
11:55 PM 32.0 °F 28.7 °F 28.4 °F 87% 30.05 in 10.0 mi East 3.5 mph - N/A   Clear